Regional Weather Roundup
Issued by NWS Wakefield, VA

Home | Current Version | Previous Version | Text Only | Print | Product List | Glossary Off
Versions: 1 2 3 4 5 6 7 8 9 10 11 12 13 14 15 16 17 18 19 20 21 22 23 24 25 26 27

000
ASUS41 KAKQ 232010
RWRAKQ

REGIONAL WEATHER ROUNDUP
NATIONAL WEATHER SERVICE WAKEFIELD VA
400 PM EDT WED APR 23 2014

Note: "fair" indicates few or no clouds below 12,000 feet with no
significant weather and/or obstructions to visibility. * = Denotes
station may not report precipitation (e.g., rain,snow,etc.),
thunder or fog.

VAZ042-051-052>054-056-232100-
NORTHERN VIRGINIA

CITY           SKY/WX    TMP DP  RH WIND       PRES   REMARKS
WASH NATIONAL  MOSUNNY   60  35  39 NW20      29.84S
DULLES         MOSUNNY   57  33  40 NW22G33   29.85F
FORT BELVOIR   MOSUNNY   59  34  38 NW24G35   29.85S
QUANTICO       MOSUNNY   62  34  35 N12G28    29.85S
FREDERICKSBRG* MOSUNNY   64  33  32 N15G24    29.83S
STAFFORD*      SUNNY     62  36  38 NW23G33   29.88S
WARRENTON      SUNNY     62  41  46 NW17G28   29.84F
CULPEPER*      SUNNY     64  28  25 N7G21     29.86S
MANASSAS*      MOSUNNY   61  36  39 NW18G28   29.86R
LEESBURG*      PTSUNNY   55  37  50 N18G29    29.87R
WINCHESTER     CLOUDY    55  34  44 W17G28    29.88S
$$

VAZ048-049-060>072-079>083-232100-
CENTRAL AND SOUTH CENTRAL VIRGINIA...AND NORTH CENTRAL NORTH CAROLINA

CITY           SKY/WX    TMP DP  RH WIND       PRES   REMARKS
RICHMOND       MOSUNNY   66  29  24 NW18G26   29.82S
CHESTERFIELD*  CLEAR     66  28  24 NW14G25   29.83S
HANOVER        MOSUNNY   65  31  28 NW16G25   29.84S
TAPPAHANNOCK*  MOSUNNY   64  26  24 NW9G24    29.81F
CHARLOTTSVILLE MOSUNNY   63  30  28 N14G25    29.84F
ORANGE*        MOSUNNY   63  32  31 NW14G21   29.86S
LOUISA*        MOSUNNY   63  32  31 N8        29.83S
FARMVILLE*     SUNNY     68  28  22 N7G18     29.81S
SOUTH HILL*    SUNNY     70  34  26 W5        29.86F
ROANOKE RAPIDS CLEAR     55  25  30 NW15G21   29.81F
RALEIGH        SUNNY     70  27  20 NW10G17   29.84F
$$

VAZ088>098-232100-
SOUTHEAST VIRGINIA

CITY           SKY/WX    TMP DP  RH WIND       PRES   REMARKS
NORFOLK        SUNNY     66  31  27 NW13G24   29.77F
VIRGINIA BEACH MOSUNNY   67  32  27 NW23G31   29.77S
NORFOLK NAVAL  MOSUNNY   68  34  28 W22G31    29.80R
WEST POINT*      N/A    N/A N/A N/A MISG        N/A
NEWPORT NEWS   SUNNY     70  32  24 NW17G26   29.79S
LANGLEY AFB    SUNNY     67  36  32 NW13G23   29.78S
FORT EUSTIS    SUNNY     66  40  39 NW22G30   29.77S
WILLIAMSBURG*  MOSUNNY   72  37  28 NW15G22   29.80S
FRANKLIN*      SUNNY     70  34  26 W14G22    29.79S
WAKEFIELD      SUNNY     68  30  24 VRB7G20   29.80S
$$

VAZ020-022-025-037-045-232100-
WESTERN AND SOUTHWEST VIRGINIA

CITY           SKY/WX    TMP DP  RH WIND       PRES   REMARKS
STAUNTON*      SUNNY     60  29  30 N9G18     29.90S
HOT SPRINGS VA SUNNY     50  27  40 NW18G26   29.94R
LYNCHBURG      SUNNY     72  28  19 N6G17     29.85S
DANVILLE       SUNNY     70  29  21 W7        29.85S
MARTINSVILLE   SUNNY     70  24  18 N13G22    29.89F
ROANOKE        SUNNY     65  28  24 NW14G26   29.91R
BLACKSBURG     SUNNY     61  34  36 NW13G20   29.94S
DUBLIN*        MOSUNNY   61  28  29 NW12G20   29.93S
MARION*        SUNNY     60  24  25 W9G20     29.97S
HILLSVILLE*    SUNNY     61   5  11 NW17G24   29.96R
RICHLANDS*     CLEAR     60  26  27 W7        29.98S
WISE*          SUNNY     59  25  27 NW7       30.02R
ABINGDON*      SUNNY     64  20  18 N9G18     29.97F
$$

MDZ021>025-VAZ099-100-232100-
SOUTHERN MARYLAND AND THE DELMARVA PENINSULA

CITY           SKY/WX    TMP DP  RH WIND       PRES   REMARKS
PATUXENT RIVER MOSUNNY   62  34  35 NW25G32   29.79S
BAY BRIDGE APT NOT AVBL
LEONARDTOWN    PTSUNNY   61  32  33 W16G24    29.81F
DOVER          PTSUNNY   59  36  43 W25G35    29.71R
GEORGETOWN     CLOUDY    60  35  39 NW15G26   29.74S
EASTON         MOSUNNY   59  39  47 NW20G29   29.82S
CAMBRIDGE      MOSUNNY   61  36  39 NW17G26   29.79R
SALISBURY      PTSUNNY   62  35  36 NW23G38   29.76R
OCEAN CITY     PTSUNNY   60  36  40 NW16G30   29.73R
WALLOPS ISLAND MOSUNNY   62  38  40 NW23G35   29.75S
ACCOMACK*      SUNNY     59  36  41 NW20G35   29.78S
$$

NCZ012>017-030>032-232100-
EASTERN NORTH CAROLINA

CITY           SKY/WX    TMP DP  RH WIND       PRES   REMARKS
ELIZABETH CITY SUNNY     70  35  27 NW18      29.77
AHOSKIE*       SUNNY     68  35  29 N8        29.80S
EDENTON*       SUNNY     70  36  28 NW17G23   29.79R
CURRITUCK*     MOSUNNY   70  28  21 NW16G23   29.78S
KILL DEVIL HLS SUNNY     60  37  43 NE7       29.78S
MANTEO         SUNNY     61  39  44 NE12      29.78S
CAPE HATTERAS  MOSUNNY   62  39  42 NE10G17   29.79S
GOLDSBORO      SUNNY     72  28  20 N16G23    29.80S
WASHINGTON     SUNNY     73  26  17 NW8G20    29.79S
GREENVILLE     SUNNY     72  34  25 NW10G18   29.83S
NEW BERN       SUNNY     75  37  25 N15G21    29.79F
WILMINGTON     SUNNY     81  31  16 NW16G23   29.78S
$$

VAZ048-232100-
ELSEWHERE

CITY           SKY/WX    TMP DP  RH WIND       PRES   REMARKS
HARRISBURG PA  PTSUNNY   56  35  45 NW25G36   29.81R
BALTIMORE      MOSUNNY   58  35  42 NW20G32   29.80S
ANNAPOLIS      SUNNY     58  37  45 NW15      29.80R
ANDREWS AFB    MOSUNNY   59  35  41 NW18G28   29.83R
WILMINGTON DE  PTSUNNY   58  36  43 NW24G38   29.76R
PHILADELPHIA   PTSUNNY   60  32  34 NW22G36   29.73R
WILDWOOD NJ*   MOSUNNY   57  37  47 NW15G25   29.72S
ATLANTIC CITY  PTSUNNY   59  35  40 NW28G37   29.67R
HENDERSON NC   SUNNY     68  26  20 NW9G16    29.84S
GREENSBORO     SUNNY     71  21  15 NW8G20    29.86F
ROCKY MOUNT    SUNNY     71  31  22 NW14G21   29.82S
FAYETTEVILLE   SUNNY     77  26  15 W15G22    29.81F
CHARLOTTE      SUNNY     76  28  17 NW9       29.86F
$$

VAZ100-232100-
MARINE

STATION/POSITION TIME  TEMP    WIND        PRES    WAVE   SWELL
                       AIR SEA DIR/SP/G            HT/PER HT/PER
                 (UTC) (F)     (DEG/KT/KT) (MB)    (FT/S) (FT/S)
44066 TX TWR #4  2000   47 44  280/ 14/ 16 1001.4R   6/ 6   3/ 9
CAPE MAY NJ      2000   56 57  330/ 20/ 28 1006.0R
LEWES DE         2000   55 53  330/ 24/ 29 1006.1R
15NM E FENWICK I 2000   51 47              1005.8R   4/ 6
OCEAN-CITY-INLET 2000   57 48  320/ 16/ 22 1006.3R
WACHAPREAGUE VA  2000   60 60  310/  8/ 21 1008.2R
THOMAS POINT MD  2000   56 54  300/ 17/ 20 1009.3S
GOOSES REEF MD   2000   56     340/ 17/ 23   N/A
COVE POINT MD    2000   57     330/ 19/ 23 1008.6R
SOLOMONS ISLAND  2000      56                N/A
BISHOPS HEAD MD  2000   59 62  320/ 20/ 29 1008.6F
PINEY POINT MD   2000          320/ 24/ 29   N/A
POTOMAC MD       2000   56     300/ 19/ 25 1008.3F
CAMBRIDGE MD     2000   57 57  320/ 19/ 24 1008.2R
LEWISETTA VA     2000   58 59  320/ 21/ 27 1009.5R
RAPPAHANNOCK LGT 2000          330/ 19/ 21 1009.1R
STINGRAY PT      2000   59     330/ 19/ 25 1008.8S
YORK RVR RNG VA  2000   61     320/ 16/ 19 1007.6S
YORKTOWN VA      2000   61 56  320/ 17/ 21 1008.3R
JAMESTOWN VA     2000   62     340/ 17/ 23   N/A
DOMINION TERM VA 2000   62     320/ 15/ 18 1008.3F
KIPTOPEKE VA     2000      55  350/ 22/ 26   N/A
CHES BAY BRIDGE  2000   59 54  330/ 17/ 18 1008.0F
CAPE HENRY VA    2000   58     340/ 12/ 16   N/A
CHESAPEAKE LGHT  1900   55     340/ 21/ 22 1008.5F
WILLOUBY STN VA  2000   62     300/ 18/ 22 1007.4R
S CRANEY ISL VA  2000          300/ 14/ 21 1008.3S
CAPE HENRY BUOY  2000      49                N/A     4/ 4
1ST LANDING BUOY 2000      49                N/A     3/ 9   2/ 9
64NM E OF VA BCH 2000   51 49  340/ 14/ 17 1007.6F   4/ 5   2/ 8
DUCK PIER NC     2000   54 51   20/ 10/ 13 1007.4R
44100 DUCK FRF   2000      50                N/A     3/ 8
44056 DUCK FRF   2000      51                N/A     3/ 8
OREGON INLET NC  2000   54 58   30/ 11/ 14 1008.2F
HATTERAS NC      2000   59 60   20/  9/ 12 1008.8S
DIAMOND SHLS NC  2000   61 76   10/ 10/ 14 1008.2S   5/ 7   5/ 7
CAPE LOOKOUT NC  1900   62     140/  7/  8 1008.7S
FRYING PAN SHLS  2000   69 69  240/ 10/ 12 1008.6F   3/ 8   2/ 8
$$



USA.gov is the U.S. government's official web portal to all federal, state and local government web resources and services.